Location: Newark
(46.9000°N, 28.3500°E)
Time: 11:46:11
(UTC+00:00)

Courier 1B Rocket - All Passes

Search period start: 19 August 2019 00:00
Search period end: 29 August 2019 00:00
Orbit: 920 x 1202 km, 28.3° (Epoch: 18 August)

Date Brightness Start Highest point End Pass type
(mag) Time Alt. Az. Time Alt. Az. Time Alt. Az.
19 Aug - 01:56:24 10° S 01:57:52 11° SSE 01:59:20 10° SSE visible
19 Aug - 03:45:18 10° SSW 03:50:08 18° S 03:54:58 10° SE daylight
19 Aug - 05:37:50 10° SW 05:42:33 17° S 05:47:12 10° SSE daylight
20 Aug - 02:44:59 10° SSW 02:49:19 16° SSE 02:53:41 10° SE daylight
20 Aug - 04:36:43 10° SW 04:41:43 18° S 04:46:41 10° SE daylight
20 Aug - 06:30:59 10° SW 06:34:02 13° SSW 06:37:03 10° S daylight
21 Aug - 01:45:09 10° S 01:48:32 13° SSE 01:51:57 10° SE visible
21 Aug - 03:35:52 10° SW 03:40:52 19° S 03:45:53 10° SE daylight
21 Aug - 05:29:04 10° SW 05:33:15 15° SSW 05:37:24 10° SSE daylight
22 Aug - 00:46:51 10° SSE 00:47:48 10° SSE 00:48:45 10° SSE visible
22 Aug - 02:35:18 10° SSW 02:40:02 18° S 02:44:49 10° SE visible
22 Aug - 04:27:43 10° SW 04:32:26 17° S 04:37:09 10° SSE daylight
23 Aug - 01:35:05 10° SSW 01:39:14 16° SSE 01:43:27 10° SE visible
23 Aug - 03:26:42 10° SW 03:31:35 18° S 03:36:33 10° SE daylight
23 Aug - 05:20:51 10° SW 05:23:56 13° SSW 05:27:01 10° S daylight
24 Aug - 00:35:25 10° S 00:38:29 13° SSE 00:41:36 10° SE visible
24 Aug - 02:25:57 10° SW 02:30:46 18° S 02:35:40 10° SE visible
24 Aug - 04:19:04 10° SW 04:23:09 15° SSW 04:27:15 10° SSE daylight
25 Aug - 01:25:30 10° SSW 01:29:58 17° S 01:34:32 10° SE visible
25 Aug - 03:17:48 10° SW 03:22:20 17° S 03:26:56 10° SSE daylight
26 Aug - 00:25:25 10° SSW 00:29:11 15° SSE 00:33:05 10° SE visible
26 Aug - 02:16:53 10° SW 02:21:30 18° S 02:26:16 10° SE visible
26 Aug - 04:10:59 10° SW 04:13:50 12° SSW 04:16:43 10° S daylight
26 Aug - 23:25:56 10° S 23:28:30 12° SSE 23:31:06 10° SE visible
27 Aug - 01:16:14 10° SW 01:20:43 17° S 01:25:20 10° SE visible
27 Aug - 03:09:15 10° SW 03:13:04 15° SSW 03:16:55 10° SSE daylight
28 Aug - 00:15:53 10° SSW 00:19:58 16° S 00:24:10 10° SE visible
28 Aug - 02:08:05 10° SW 02:12:16 16° S 02:16:34 10° SSE visible
28 Aug - 23:15:55 10° SSW 23:19:15 14° SSE 23:22:40 10° SE visible
